Location: Unspecified
(0.0000°N, 0.0000°E)
Time: 14:14:18
(UTC+00:00)

A-11 Canister half - Pass Details

Date: 30 May 2026
Orbit: 1515 x 1685 km, 47.2° (Epoch: 8 June)

Event Time Altitude Azimuth Distance (km) Brightness Sun altitude
Rises 13:20:37 0° 209° (SSW) 4,935 11.6 60.2°
Reaches altitude 10° 13:23:57 10° 203° (SSW) 3,948 11.1 59.7°
Maximum altitude 13:33:43 51° 130° (SE) 2,022 10.0 58.0°
Drops below altitude 10° 13:43:16 10° 57° (ENE) 3,878 11.1 56.2°
Sets 13:46:29 0° 52° (NE) 4,843 11.6 55.6°
